Wind_Speed
26 25 24 22 21 19 18 18 17 16 16 15 15 16 15 14 13 14 15 14 14 14 13 12 11 11 11 11 12 12 10 10 10 9 9 9 10 10 10 11 12 11
26 26 26 24 22 21 20 19 18 17 16 15 16 16 15 15 14 14 15 15 15 14 14 12 12 12 12 12 13 13 12 11 11 10 9 9 9 9 9 10 11 12
26 26 26 25 23 22 20 20 19 18 16 16 16 16 15 15 14 14 14 15 15 14 14 13 12 12 12 12 12 13 13 13 12 11 11 10 10 9 9 10 12 12
26 26 25 24 23 22 21 20 20 19 18 17 16 16 15 14 14 15 15 14 14 14 14 14 14 14 13 13 13 13 13 13 12 12 12 12 12 11 10 11 12 13
26 26 25 23 22 22 22 22 20 19 19 18 17 16 16 14 14 15 16 15 15 14 15 15 15 15 15 14 14 14 14 13 13 12 13 13 13 12 11 12 13 13
26 26 25 24 23 22 23 22 21 19 19 18 17 17 17 16 15 16 16 16 16 15 15 15 15 16 16 15 15 15 14 13 13 13 14 13 12 12 12 13 14 13
26 26 25 24 23 23 23 23 22 20 19 19 19 18 18 17 17 17 17 17 16 16 16 16 16 16 16 16 16 15 14 14 14 14 14 13 12 12 13 13 14 14
26 26 26 25 24 23 23 22 22 21 20 21 20 20 19 18 18 18 18 18 18 17 17 16 16 15 15 16 16 15 15 15 15 15 14 14 13 13 12 13 13 14
25 26 26 26 25 24 23 22 22 21 21 22 21 20 20 19 19 18 19 19 19 18 18 17 16 16 16 16 16 16 15 15 15 15 14 14 14 13 12 13 13 13
26 26 26 26 26 25 24 23 22 21 21 22 21 21 21 20 19 19 19 20 19 19 18 17 17 17 16 16 16 16 16 15 15 15 15 15 14 13 13 13 13 13
26 26 27 27 27 26 25 24 23 22 22 22 22 21 21 20 20 20 20 19 19 18 18 18 17 17 17 17 17 17 16 16 15 15 15 14 14 13 13 13 14 13
26 27 27 27 27 27 26 24 23 23 22 22 22 21 21 20 20 20 19 19 18 18 18 18 17 17 17 17 17 17 17 17 16 16 15 14 14 13 13 13 13 13
27 27 27 27 28 27 26 25 24 24 23 23 22 22 21 20 19 19 18 17 17 18 18 18 17 17 17 17 16 17 17 17 17 16 16 15 15 15 14 13 13 13
29 28 28 27 27 27 27 26 25 24 24 24 23 23 22 21 20 18 17 16 17 17 17 17 17 18 18 18 17 17 17 17 16 16 16 16 16 16 15 15 14 14
30 29 29 28 28 27 27 27 25 25 24 24 24 24 23 22 20 18 17 17 17 17 17 17 17 18 18 18 18 17 17 17 16 17 17 17 17 16 16 16 16 15
34 31 29 29 28 28 27 26 26 25 25 25 25 25 24 23 22 20 18 18 18 18 18 18 18 17 17 17 17 17 17 17 17 17 18 18 18 18 18 17 17 16
35 32 30 29 29 28 27 27 26 26 25 25 26 26 26 25 23 22 20 19 19 19 19 19 19 17 16 15 16 16 17 18 18 18 18 19 19 19 19 19 18 17
33 33 31 30 30 29 28 27 27 27 26 26 26 26 26 27 26 24 23 22 21 21 21 21 20 18 16 16 16 16 17 18 19 19 19 20 20 20 20 20 19 18
32 32 31 29 30 30 28 27 27 27 27 26 26 26 27 28 28 27 25 24 24 23 23 22 21 20 19 18 17 17 18 19 20 20 20 20 20 20 20 20 20 20
30 30 30 30 30 30 29 27 26 26 26 26 26 26 27 28 29 29 27 26 25 24 24 24 23 22 21 21 20 19 19 20 21 21 21 21 20 20 20 20 21 21
28 28 29 30 29 27 27 26 24 24 25 25 25 25 26 27 27 28 28 27 24 23 23 24 23 23 23 23 23 22 21 21 22 22 22 22 21 21 20 20 20 21
27 27 28 28 27 24 24 23 23 23 23 22 21 21 23 24 25 28 29 27 25 23 24 25 25 24 25 25 25 25 24 24 23 23 23 23 23 22 22 21 21 22
20 20 19 20 20 20 22 22 22 21 20 18 18 19 19 19 21 25 26 25 23 23 24 25 26 26 26 26 26 26 27 27 27 26 25 25 24 24 23 23 23 23
11 12 13 14 14 16 18 20 21 20 18 18 18 18 18 18 19 22 23 22 22 22 23 24 25 25 26 26 27 27 28 29 29 29 29 28 27 26 26 26 25 25
9 11 12 13 15 15 16 16 18 19 18 17 18 18 18 18 20 21 23 23 24 24 24 26 27 26 27 27 28 28 29 30 30 31 31 31 30 30 29 29 28 27
7 8 9 9 12 15 15 16 17 18 18 18 19 20 20 20 21 23 25 26 26 26 26 27 27 28 29 30 30 31 31 32 32 32 33 33 33 33 33 32 31 30
Wind_Direction
220 223 225 229 233 235 233 230 229 231 234 235 236 236 235 234 230 228 227 226 225 224 225 226 227 231 232 232 235 237 238 242 241 241 246 248 243 241 245 248 250 254
222 222 223 227 232 236 235 232 232 233 234 236 236 236 237 235 232 231 229 226 225 225 226 228 230 232 232 233 236 236 238 242 241 241 244 245 242 242 248 253 254 254
223 223 223 226 231 235 235 234 235 235 235 235 235 236 235 233 232 231 229 226 226 228 229 230 232 232 231 232 236 238 239 240 238 238 240 241 241 242 247 253 255 256
225 225 225 227 231 234 235 236 237 237 235 232 232 232 232 231 230 229 228 228 228 230 230 230 231 233 233 233 237 240 241 240 238 239 241 241 241 244 248 252 253 253
227 226 227 229 231 234 234 236 238 239 238 235 231 229 229 230 229 228 228 230 231 231 231 230 230 233 233 234 238 241 241 241 239 241 243 242 243 245 247 251 251 250
228 227 228 230 232 233 234 234 235 240 242 241 236 231 230 232 232 231 231 232 233 233 232 230 231 233 234 235 238 241 243 243 242 243 242 242 246 248 249 251 252 251
228 227 228 230 231 232 234 233 234 239 244 246 241 236 234 234 235 236 237 237 236 235 233 233 234 236 237 238 240 242 244 245 244 244 244 244 246 249 252 254 256 256
229 229 229 231 232 232 233 234 235 238 242 244 242 238 237 237 238 240 242 242 240 238 237 238 239 240 240 241 243 245 245 245 245 245 246 247 248 248 250 253 255 256
231 231 231 232 233 233 232 233 234 236 239 241 240 238 238 239 241 243 245 245 243 242 242 242 243 243 242 243 245 247 248 246 245 244 244 245 246 245 244 246 251 253
232 232 232 232 233 233 231 230 232 234 237 238 237 237 239 241 243 245 245 245 244 243 243 244 245 245 244 244 245 248 249 247 245 245 245 244 244 243 241 242 248 251
234 233 233 232 232 233 232 231 230 233 236 237 236 237 239 241 242 242 243 244 244 243 243 244 245 245 245 244 245 246 247 246 244 243 244 245 245 244 241 241 244 246
236 235 234 234 234 233 233 231 230 232 235 235 235 237 239 241 241 241 242 244 245 245 243 243 244 244 244 244 244 245 245 245 242 240 241 243 244 245 244 241 243 244
238 236 235 236 236 234 233 232 231 231 233 234 235 237 238 239 240 240 242 246 248 248 246 245 245 245 245 246 245 245 246 245 242 240 240 242 245 246 245 244 243 243
238 237 235 235 236 236 234 233 233 233 233 234 236 238 238 238 237 238 241 246 250 250 249 248 248 248 248 247 246 246 247 245 243 242 242 244 246 248 248 247 246 245
239 237 234 233 234 235 235 235 236 236 237 238 240 241 241 238 235 235 240 245 248 249 249 249 251 252 251 249 247 247 248 248 246 245 246 247 249 249 249 248 247 248
243 239 235 232 231 232 233 235 238 240 242 242 243 244 243 240 238 238 239 241 244 246 248 250 252 254 253 250 248 247 249 250 250 250 250 251 252 252 251 249 248 248
245 243 237 232 229 229 230 231 233 236 239 240 241 243 243 242 240 240 239 237 239 243 247 251 253 254 253 251 250 249 249 250 251 253 253 253 253 254 254 253 253 252
245 245 240 234 230 228 228 228 230 231 231 233 236 239 242 242 241 241 240 238 240 244 249 253 256 256 254 252 252 252 253 254 255 256 256 255 255 256 256 257 257 256
237 240 240 236 233 230 229 228 229 230 231 234 234 235 238 241 243 243 240 239 242 246 250 254 257 257 254 253 253 253 255 258 260 260 259 258 257 258 259 260 259 258
230 236 239 237 233 231 230 229 228 230 234 238 238 236 236 238 242 245 242 239 243 248 252 254 255 254 253 252 253 255 257 260 262 262 261 258 257 259 261 262 262 260
226 230 233 233 233 233 234 233 233 236 239 242 242 242 242 240 242 246 244 241 243 249 254 255 254 253 252 252 253 256 257 259 259 260 260 258 258 259 261 264 265 263
223 224 225 226 230 238 243 242 241 243 246 248 247 247 247 244 241 242 242 241 243 247 253 255 254 253 251 250 252 254 255 256 257 258 259 259 260 261 262 264 266 265
228 229 229 228 233 243 249 247 244 243 245 247 247 248 250 247 243 243 245 245 245 248 253 256 257 256 254 252 252 253 255 256 256 256 258 259 260 262 263 264 265 266
233 235 238 238 238 243 248 248 246 244 245 247 249 251 253 251 249 251 253 253 252 253 255 257 260 261 260 258 256 256 256 256 256 257 258 259 260 262 263 263 262 263
264 262 258 250 243 241 245 248 249 247 247 248 250 253 252 252 254 257 259 259 260 259 258 259 260 260 259 258 257 257 257 257 257 257 257 258 260 262 262 260 259 258
284 280 278 271 262 258 259 261 261 259 257 255 256 258 258 257 258 259 260 262 263 263 262 261 261 259 258 257 256 256 257 258 258 256 256 257 258 258 259 260 259 257
Height
1573 1575 1576 1577 1579 1580 1581 1582 1583 1584 1585 1586 1587 1588 1589 1590 1592 1592 1593 1594 1595 1596 1596 1597 1598 1599 1599 1600 1600 1601 1601 1601 1602 1602 1602 1602 1603 1603 1603 1603 1603 1603
1572 1574 1575 1576 1578 1579 1580 1581 1582 1583 1584 1585 1586 1587 1588 1589 1590 1591 1592 1593 1594 1595 1595 1596 1597 1598 1598 1599 1599 1600 1600 1601 1601 1601 1601 1602 1602 1602 1602 1602 1602 1602
1571 1572 1573 1575 1576 1577 1579 1580 1581 1582 1583 1584 1585 1586 1587 1588 1589 1590 1591 1592 1593 1593 1594 1595 1596 1597 1597 1598 1598 1599 1599 1599 1600 1600 1600 1600 1600 1601 1601 1601 1601 1601
1569 1571 1572 1573 1575 1576 1578 1579 1580 1581 1582 1583 1584 1585 1586 1587 1588 1589 1590 1591 1591 1592 1593 1594 1595 1595 1596 1597 1597 1597 1598 1598 1599 1599 1599 1599 1599 1599 1600 1600 1599 1600
1567 1569 1570 1572 1573 1575 1576 1577 1578 1579 1580 1581 1583 1584 1585 1586 1587 1587 1588 1589 1590 1591 1591 1592 1593 1594 1595 1595 1596 1596 1597 1597 1597 1597 1597 1598 1598 1598 1598 1598 1598 1598
1565 1567 1568 1570 1571 1573 1574 1575 1577 1578 1579 1580 1581 1583 1584 1584 1585 1586 1587 1588 1589 1589 1590 1591 1592 1592 1593 1594 1594 1595 1595 1596 1596 1596 1596 1596 1597 1597 1597 1597 1597 1597
1563 1565 1567 1568 1570 1571 1573 1574 1575 1576 1578 1579 1580 1581 1582 1583 1584 1585 1586 1587 1587 1588 1589 1589 1590 1591 1592 1592 1593 1593 1594 1594 1595 1595 1595 1595 1595 1595 1595 1595 1595 1595
1562 1563 1565 1567 1568 1569 1571 1572 1573 1575 1576 1577 1578 1580 1581 1582 1583 1584 1585 1585 1586 1587 1587 1588 1589 1589 1590 1591 1591 1591 1592 1593 1593 1593 1593 1594 1594 1594 1594 1594 1594 1594
1560 1562 1563 1565 1566 1567 1569 1570 1572 1573 1574 1576 1577 1578 1579 1580 1581 1582 1583 1584 1584 1585 1586 1587 1587 1588 1589 1589 1589 1590 1590 1591 1591 1592 1592 1592 1592 1593 1593 1592 1592 1592
1558 1559 1561 1563 1564 1566 1567 1568 1570 1571 1573 1574 1575 1577 1578 1579 1580 1581 1582 1582 1583 1583 1584 1585 1586 1586 1587 1587 1588 1588 1589 1589 1590 1590 1590 1590 1591 1591 1591 1591 1591 1591
1556 1557 1559 1560 1562 1564 1565 1567 1568 1570 1571 1572 1574 1575 1576 1577 1578 1579 1580 1581 1581 1582 1583 1583 1584 1585 1585 1585 1586 1587 1587 1588 1588 1588 1589 1589 1589 1590 1590 1590 1590 1590
1554 1555 1557 1558 1560 1562 1563 1565 1566 1568 1569 1570 1572 1573 1574 1576 1577 1578 1579 1579 1580 1581 1581 1582 1583 1583 1584 1584 1584 1585 1585 1586 1586 1587 1587 1587 1588 1588 1588 1589 1589 1589
1551 1553 1555 1557 1559 1560 1562 1563 1564 1566 1567 1568 1570 1572 1573 1574 1575 1576 1577 1578 1579 1580 1580 1581 1581 1582 1582 1582 1583 1583 1584 1584 1585 1585 1585 1586 1586 1587 1587 1587 1587 1587
1548 1550 1552 1554 1556 1558 1560 1561 1562 1563 1565 1566 1568 1569 1570 1572 1573 1574 1576 1576 1577 1578 1578 1579 1580 1580 1580 1581 1581 1582 1582 1583 1583 1583 1584 1584 1584 1585 1585 1585 1586 1586
1545 1547 1548 1551 1553 1555 1557 1558 1560 1561 1563 1564 1566 1567 1568 1570 1571 1572 1573 1574 1575 1576 1577 1577 1578 1578 1579 1579 1580 1580 1580 1581 1581 1581 1582 1582 1582 1583 1583 1583 1584 1584
1543 1544 1545 1547 1549 1551 1553 1555 1557 1559 1561 1562 1563 1564 1566 1567 1569 1570 1570 1571 1572 1573 1574 1575 1575 1576 1577 1577 1578 1578 1578 1579 1579 1579 1580 1580 1580 1581 1581 1581 1582 1582
1539 1541 1542 1544 1546 1547 1549 1551 1554 1555 1557 1558 1560 1561 1563 1564 1566 1567 1567 1568 1570 1571 1572 1572 1573 1574 1575 1575 1575 1576 1576 1576 1577 1577 1577 1578 1578 1578 1579 1579 1580 1580
1536 1539 1540 1541 1543 1544 1546 1548 1550 1552 1553 1554 1556 1558 1559 1561 1562 1563 1564 1566 1567 1568 1569 1570 1571 1572 1573 1573 1573 1574 1574 1574 1574 1575 1575 1575 1576 1576 1576 1577 1577 1578
1532 1536 1538 1539 1540 1541 1543 1545 1547 1549 1550 1552 1553 1554 1556 1557 1559 1561 1562 1563 1564 1565 1566 1567 1568 1569 1570 1571 1572 1572 1572 1572 1572 1572 1573 1573 1573 1573 1574 1574 1575 1575
1529 1533 1536 1538 1538 1538 1540 1542 1544 1546 1548 1550 1551 1552 1553 1554 1556 1558 1560 1561 1561 1562 1563 1564 1565 1567 1568 1569 1569 1570 1570 1570 1570 1570 1570 1570 1570 1571 1571 1571 1572 1572
1527 1530 1532 1534 1534 1535 1537 1540 1542 1544 1545 1547 1548 1549 1550 1551 1553 1555 1557 1558 1559 1560 1560 1562 1563 1564 1565 1566 1567 1567 1567 1567 1567 1567 1567 1567 1568 1568 1568 1569 1569 1569
1525 1527 1529 1530 1532 1534 1537 1539 1541 1541 1542 1544 1545 1546 1547 1549 1551 1552 1553 1555 1555 1556 1557 1559 1560 1561 1562 1563 1564 1564 1564 1564 1564 1564 1564 1564 1565 1565 1565 1566 1566 1566
1524 1526 1529 1529 1530 1533 1537 1539 1539 1539 1540 1541 1542 1543 1544 1546 1547 1548 1550 1551 1552 1553 1554 1555 1557 1558 1559 1559 1560 1561 1561 1561 1561 1561 1561 1561 1561 1562 1562 1562 1563 1563
1525 1526 1528 1528 1528 1531 1535 1537 1537 1537 1538 1539 1540 1541 1542 1544 1545 1546 1548 1548 1548 1550 1551 1552 1553 1555 1555 1556 1556 1557 1557 1557 1557 1557 1557 1557 1558 1558 1558 1558 1559 1559
1525 1526 1527 1528 1529 1531 1533 1535 1535 1536 1536 1537 1538 1539 1541 1542 1544 1545 1546 1547 1547 1547 1548 1549 1550 1551 1552 1552 1552 1552 1553 1553 1553 1553 1553 1554 1554 1554 1554 1554 1554 1555
1526 1527 1527 1528 1530 1531 1532 1534 1534 1534 1534 1535 1537 1538 1539 1540 1542 1543 1544 1544 1545 1545 1545 1546 1547 1547 1548 1548 1548 1548 1549 1549 1549 1549 1549 1550 1549 1549 1549 1549 1550 1551